Tracking 28081 objects as of 26-Sep-2023
HD Live streaming from Space Station
objects crossing your sky now

STARLINK-4381

Track STARLINK-4381 now!
10-day predictions
STARLINK-4381 is classified as:


NORAD ID: 53222
Int'l Code: 2022-084AK
Perigee: 569.7 km
Apogee: 570.5 km
Inclination: 97.7 °
Period: 95.9 minutes
Semi major axis: 6941 km
RCS: Unknown
Launch date: July 22, 2022
Source: United States (US)
Launch site: AIR FORCE WESTERN TEST RANGE (AFWTR)
Your satellite tracking list
Your tracking list is empty




NASA's NSSDC Master Catalog

Two Line Element Set (TLE):
1 53222U 22084AK  23268.19556809  .00009289  00000-0  72660-3 0  9996
2 53222  97.6574 327.8281 0000565 270.3278  89.7882 15.01274205 64818
Source of the keplerian elements: AFSPC